This demonstration page uses our WeatherBlox Daily Observations layout. Learn more.

Left ArrowRight Arrow

53.62937, 11.41316

Hourly Observations for April 19, 2018

Temp ( °F °C ) Dew Point ( °F °C ) Humidity (%) Winds ( mph kmh ) Pressure ( in mb ) Visibility ( mi km ) Precip ( " mm )
7:20 am 07:20 Partly Cloudy with Fog 46 8 46 8 100 100 VRB 1 2 30.48 1032 4 7 N/A
7:50 am 07:50 Mostly Sunny 50 10 50 10 100 100 VRB 1 2 30.48 1032 6 9 N/A
8:20 am 08:20 Mostly Sunny 55 13 55 13 100 100 E 3 6 30.48 1032 7 11 N/A
8:50 am 08:50 Mostly Sunny 59 15 55 13 88 88 E 5 7 30.48 1032 7 11 N/A
9:20 am 09:20 Mostly Sunny 63 17 55 13 77 77 E 3 6 30.48 1032 7 11 N/A
9:50 am 09:50 Mostly Sunny 64 18 54 12 68 68 VRB 5 7 30.48 1032 7 11 N/A
10:20 am 10:20 Mostly Sunny 66 19 54 12 64 64 ESE 7 11 30.48 1032 7 11 N/A
10:50 am 10:50 Mostly Sunny 68 20 55 13 64 64 ESE 6 9 30.48 1032 7 11 N/A
11:20 am 11:20 Mostly Sunny 70 21 54 12 57 57 ESE 5 7 30.48 1032 7 11 N/A
11:50 am 11:50 Mostly Sunny 72 22 52 11 50 50 SE 5 7 30.48 1032 7 11 N/A
12:20 pm 12:20 Mostly Sunny 73 23 54 12 50 50 SE 5 7 30.45 1031 7 11 N/A
12:50 pm 12:50 Mostly Sunny 73 23 50 10 44 44 SE 7 11 30.45 1031 7 11 N/A
1:20 pm 13:20 Mostly Sunny 75 24 54 12 47 47 ESE 7 11 30.45 1031 7 11 N/A
1:50 pm 13:50 Mostly Sunny 75 24 50 10 41 41 SE 7 11 30.45 1031 7 11 N/A
2:20 pm 14:20 Mostly Sunny 75 24 50 10 41 41 SE 6 9 30.42 1030 7 11 N/A
2:50 pm 14:50 Mostly Sunny 75 24 50 10 41 41 ESE 7 11 30.42 1030 7 11 N/A
3:20 pm 15:20 Mostly Sunny 77 25 50 10 39 39 SE 7 11 30.42 1030 7 11 N/A
3:50 pm 15:50 Mostly Sunny 75 24 48 9 39 39 ESE 7 11 30.42 1030 7 11 N/A
4:20 pm 16:20 Mostly Sunny 77 25 50 10 39 39 SE 5 7 30.39 1029 7 11 N/A
4:50 pm 16:50 Mostly Sunny 77 25 50 10 39 39 SSE 6 9 30.39 1029 7 11 N/A
5:20 pm 17:20 Mostly Sunny 77 25 50 10 39 39 ESE 6 9 30.39 1029 7 11 N/A
5:50 pm 17:50 Mostly Sunny 77 25 52 11 42 42 SE 6 9 30.39 1029 7 11 N/A
6:20 pm 18:20 Mostly Sunny 77 25 50 10 39 39 SE 6 9 30.39 1029 7 11 N/A
6:50 pm 18:50 Mostly Sunny 75 24 52 11 44 44 E 7 11 30.36 1028 7 11 N/A
7:20 pm 19:20 Mostly Sunny 73 23 54 12 50 50 E 7 11 30.36 1028 7 11 N/A
7:50 pm 19:50 Mostly Sunny 70 21 57 14 64 64 ENE 7 11 30.36 1028 7 11 N/A
8:20 pm 20:20 Mostly Sunny 66 19 57 14 73 73 E 7 11 30.36 1028 7 11 N/A
8:50 pm 20:50 Mostly Clear 63 17 55 13 77 77 ENE 6 9 30.36 1028 7 11 N/A

Powered by AerisWeather